Regional Weather Roundup
Issued by NWS San Diego, CA

Current Version | Previous Version | Text Only | Print | Product List | Glossary On
Versions: 1 2 3 4 5 6 7 8 9 10 11 12 13 14 15 16 17 18 19 20 21 22 23 24 25 26 27
000
ASUS46 KSGX 211111
RWRSGX

SAN DIEGO HOURLY WEATHER ROUNDUP
NATIONAL WEATHER SERVICE SAN DIEGO CA
400 AM PDT THU JUN 21 2018

NOTE: "FAIR" INDICATES FEW OR NO CLOUDS BELOW 12,000 FEET WITH NO
SIGNIFICANT WEATHER AND/OR OBSTRUCTIONS TO VISIBILITY.

CAZ042-043-060-061-PZZ750-775-211200-

GREATER SAN DIEGO AREA

CITY           SKY/WX    TMP DP  RH WIND       PRES   REMARKS
SAN DIEGO AP   CLOUDY    64  59  83 NW3       29.94S
NATIONAL CITY    N/A     64  61  90 CALM      29.93F
CHULA VISTA      N/A     63  60  91 CALM      29.84F
IMPERIAL BEACH CLOUDY    63  59  87 SW5       29.93S
BROWN FIELD    CLOUDY    63  59  87 CALM      29.92S
MIRAMAR MCAS   CLOUDY    66  58  75 E3        29.92S
MONTGOMERY FLD CLOUDY    63  58  83 CALM      29.92S

$$

NORTH SAN DIEGO COUNTY

CITY           SKY/WX    TMP DP  RH WIND       PRES   REMARKS
CAMP PENDLETON CLOUDY    63  59  87 CALM      29.92S
OCEANSIDE AP   CLOUDY    65  58  78 NW3       29.91S
OCEANSIDE HBR    N/A     64  60  87 CALM      29.94S
VISTA            N/A     63  58  84 CALM      29.89S
CARLSBAD       CLOUDY    63  59  87 CALM      29.91S
DEL MAR          N/A     63  60  91 CALM      29.93S
LA JOLLA SCRIP   N/A     62  60  94 CALM      29.91S
FALLBROOK        N/A     62  62 100 CALM      29.93S
ESCONDIDO        N/A     64  59  85 CALM      29.92S
SAN MARCOS       N/A     63  58  86 CALM      29.95S
POWAY            N/A     63  58  83 CALM      29.91S

$$

EAST SAN DIEGO COUNTY

CITY           SKY/WX    TMP DP  RH WIND       PRES   REMARKS
RAMONA         FOG       56  55  97 CALM      29.93S VSB<1/4
SANTEE LAKES     N/A     63  59  86 CALM      29.91S
LA MESA          N/A     62  58  88 CALM      29.86S
JAMUL            N/A     60  57  89 CALM      29.91S
CAMPO            N/A     57  51  80 CALM      29.94S

$$

ORANGE COUNTY AND THE LOS ANGELES BASIN

CITY           SKY/WX    TMP DP  RH WIND       PRES   REMARKS
JOHN WAYNE AP  CLOUDY    64  59  83 SE7       29.92S
LAGUNA BEACH     N/A     63  60  89 CALM      29.87S
LAKE FOREST FR   N/A     61  55  82 NE1       29.80S
HUNTINGTON BCH   N/A     63  61  93 CALM      29.92F
LOS ALAMITOS   FAIR      63  59  88 S3        29.92S
FULLERTON      CLOUDY    65  60  84 SW5       29.91S
LONG BEACH     CLOUDY    64  59  83 S6        29.92S
L.A. AP        CLOUDY    64  59  83 SE6       29.92S
L.A. DOWNTOWN  CLOUDY    66  59  78 VRB3      29.91S

$$

THE INLAND EMPIRE

CITY           SKY/WX    TMP DP  RH WIND       PRES   REMARKS
CORONA         CLEAR     54  52  93 CALM      29.93
CHINO          MOCLDY    61  57  87 SW3       29.93F FOG
ONTARIO        CLEAR     62  57  83 SW5       29.92S HAZE
SAN BERNARDINO FAIR      63  57  81 W3        29.93S
RIVERSIDE AP   CLEAR     60  58  92 W3        29.92F
MORENO VALLEY    N/A     60  59  95 CALM      28.04S
MARCH ARB      CLEAR     58  58 100 W3        29.92F
HORSETHIEF CYN   N/A     58  52  81 CALM      29.89S
PERRIS           N/A     60  59  94 S2          N/A
HEMET EAST       N/A     62  54  74 CALM      29.80S
FRENCH VALLEY  FAIR      57  55  94 S3        29.93S
TEMECULA         N/A     59  58  96 CALM      29.98S

$$

SAN BERNARDINO AND RIVERSIDE COUNTY MOUNTAINS

CITY           SKY/WX    TMP DP  RH WIND       PRES   REMARKS
BIG BEAR AP    CLEAR     45  28  53 CALM      30.27S
ANGELUS OAKS     N/A     62  33  34 CALM      29.76S

$$

SOUTHERN DESERT INCLUDING THE COACHELLA VALLEY

CITY           SKY/WX    TMP DP  RH WIND       PRES   REMARKS
PALM SPRINGS   CLEAR     81  55  40 CALM      29.82S
THOUSAND PALMS   N/A     79  53  40 CALM      29.77R
PALM DESERT      N/A     80  57  44 CALM      26.62R
THERMAL        CLEAR     68  53  58 CALM      29.77R
BLYTHE         CLEAR     81  47  30 S13       29.79R
IMPERIAL AP    CLEAR     73  65  75 E6        29.77R
EL CENTRO NAS    N/A     70  62  76 E3        29.78R
YUMA AZ        CLEAR     75  46  35 S8        29.79R

$$

UPPER DESERT

CITY           SKY/WX    TMP DP  RH WIND       PRES   REMARKS
APPLE VALLEY     N/A     54  50  85 CALM      29.86S
PALMDALE       CLEAR     67  35  30 CALM      29.96S
LANCASTER      CLEAR     73  49  42 W9        29.94S
EDWARDS AFB    CLEAR     71  48  43 SW12      29.91S
DAGGETT        CLEAR     77  42  28 W10       29.89S
29 PALMS N     CLEAR     81  30  15 NW7       29.96R
NEEDLES          N/A    N/A N/A N/A MISG      29.79S

$$

REGIONAL REPORTS

CITY           SKY/WX    TMP DP  RH WIND       PRES   REMARKS
SANTA BARBARA  CLOUDY    62  56  80 E3        29.92F
SANDBERG         N/A     68  47  46 NW15      30.10S
LAS VEGAS NV   CLEAR     86  29  12 NW6       29.84R
PHOENIX AZ     CLEAR     84  41  21 E3        29.84R
TIJUANA        CLOUDY    63  55  77 CALM      29.94F HAZE
ENSENADA NW      N/A     63  32  31 CALM      29.86F

$$

OFFSHORE ISLANDS

CITY           SKY/WX    TMP DP  RH WIND       PRES   REMARKS
CATALINA ARPT  FOG       56  56 100 CALM      29.94R VSB<1/4
SAN CLEMENTE I CLOUDY    59  58  96 SW3       29.93F
SAN NICOLAS IS CLOUDY    57  32  38 NW3       29.92S

$$

MARINE AND OFFSHORE BUOY REPORTS

STATION/POSITION SKY/WX   TEMP    WIND        PRES    VSBY  SWELL
                          AIR SEA DIR/SP/G                  HT/PER/DIR
                          (F)     (DEG/KT/KT) (MB)    (MI)  (FT/S/D)
TANNER BANKS               56 58              1013.0F
S CLEMENTE BASIN           60 66  200/  2/  4 1013.2F         3/280/ 8
SAN NICOLAS IS.               58                N/A           3/200/15
SO. S. ROSA ISLA           55 57  310/ 16/ 17 1013.2          7/310/ 8
W. S. BARBARA CH              55  320/ 14/ 17 1013.2F         5/300/ 8
M. S. BARBARA CH           62 61   50/  6/  8 1013.4F         3/250/ 7
S. MONICA BASIN            62 66  130/  8/ 10 1012.8R
S PEDRO CHANNEL               65                N/A           2/240/11
CMP PENDLETON NS              67                N/A           2/220/15
OCEANSIDE OFFSHR              69                N/A           2/210/13
TORREY PINES OTR              68                N/A           2/210/13
SAN DIEGO BAY                 71              1012.9S
POINT LOMA SOUTH              65                N/A           2/230/12

$$





USA.gov is the U.S. government's official web portal to all federal, state and local government web resources and services.